Snowfall_Accumulation
0.0 0.0 0.0 0.0 0.0 0.0 0.0 0.0 0.0 0.0 0.0 0.0 0.0 0.0 0.0 0.0 0.0 0.0 0.0 0.0 0.0 0.0 0.0 0.0 0.0 0.0 0.0 0.0 0.0 0.0 0.0 0.0 0.0 0.0 0.0 0.0 0.0 0.0 0.0 0.0 0.0 0.0 0.0 0.0 0.0 0.0 0.0 0.0 0.0
0.0 0.0 0.0 0.0 0.0 0.3 0.0 0.0 0.0 0.0 0.0 0.0 0.0 0.0 0.0 0.0 0.0 0.0 0.0 0.0 0.0 0.0 0.0 0.0 0.0 0.0 0.0 0.0 0.0 0.0 0.0 0.0 0.0 0.0 0.0 0.0 0.0 0.0 0.0 0.0 0.0 0.0 0.0 0.0 0.0 0.0 0.0 0.0 0.0
0.0 0.0 0.0 0.0 0.1 0.4 0.0 0.0 0.0 0.0 0.0 0.0 0.0 0.0 0.0 0.0 0.0 0.0 0.0 0.0 0.0 0.0 0.0 0.0 0.0 0.0 0.0 0.0 0.0 0.0 0.0 0.0 0.0 0.0 0.0 0.0 0.0 0.0 0.0 0.0 0.0 0.0 0.0 0.0 0.0 0.0 0.0 0.0 0.0
0.0 0.0 0.0 0.0 0.2 0.0 0.0 0.0 0.0 0.0 0.0 0.0 0.0 0.0 0.0 0.0 0.0 0.0 0.0 0.0 0.0 0.0 0.0 0.0 0.0 0.0 0.0 0.0 0.0 0.0 0.0 0.0 0.0 0.0 0.0 0.0 0.0 0.0 0.0 0.0 0.0 0.0 0.0 0.0 0.0 0.0 0.0 0.0 0.0
0.0 0.0 0.0 0.1 0.1 0.0 0.0 0.0 0.0 0.0 0.0 0.0 0.0 0.0 0.0 0.0 0.0 0.0 0.0 0.0 0.0 0.0 0.0 0.0 0.0 0.0 0.0 0.0 0.0 0.0 0.0 0.0 0.0 0.0 0.0 0.0 0.0 0.0 0.0 0.0 0.0 0.0 0.0 0.0 0.0 0.0 0.0 0.0 0.0
0.0 0.0 0.3 0.8 0.1 0.0 0.0 0.0 0.0 0.0 0.0 0.0 0.0 0.0 0.0 0.0 0.0 0.0 0.0 0.0 0.0 0.0 0.0 0.0 0.0 0.0 0.0 0.0 0.0 0.0 0.0 0.0 0.0 0.0 0.0 0.0 0.0 0.0 0.0 0.0 0.0 0.0 0.0 0.0 0.0 0.0 0.0 0.0 0.0
0.0 0.1 0.4 0.4 0.2 0.0 0.0 0.0 0.0 0.0 0.0 0.0 0.0 0.0 0.0 0.0 0.0 0.0 0.0 0.0 0.0 0.0 0.0 0.0 0.0 0.0 0.0 0.0 0.0 0.0 0.0 0.0 0.0 0.0 0.0 0.0 0.0 0.0 0.0 0.0 0.0 0.0 0.0 0.0 0.0 0.0 0.0 0.0 0.0
0.0 0.2 0.4 0.2 0.2 0.1 0.0 0.0 0.0 0.0 0.0 0.0 0.0 0.0 0.0 0.0 0.0 0.0 0.0 0.0 0.0 0.0 0.0 0.0 0.0 0.0 0.0 0.0 0.0 0.0 0.0 0.0 0.0 0.0 0.0 0.0 0.0 0.0 0.0 0.0 0.0 0.0 0.0 0.0 0.0 0.0 0.0 0.0 0.0
0.0 0.3 1.1 0.4 0.2 0.1 0.0 0.1 0.0 0.0 0.0 0.0 0.0 0.0 0.0 0.0 0.0 0.0 0.0 0.0 0.0 0.0 0.0 0.0 0.0 0.0 0.0 0.0 0.0 0.0 0.0 0.0 0.0 0.0 0.0 0.0 0.0 0.0 0.0 0.0 0.0 0.0 0.0 0.0 0.0 0.0 0.0 0.0 0.0
0.2 1.0 0.4 0.1 0.1 0.1 0.1 0.1 0.1 0.0 0.0 0.0 0.0 0.0 0.0 0.0 0.0 0.0 0.0 0.0 0.0 0.0 0.0 0.0 0.0 0.0 0.0 0.0 0.0 0.0 0.0 0.0 0.0 0.0 0.0 0.0 0.0 0.0 0.0 0.0 0.0 0.0 0.0 0.0 0.0 0.0 0.0 0.0 0.0
0.2 0.4 0.2 0.1 0.1 0.1 0.1 0.1 0.1 0.1 0.1 0.1 0.1 0.0 0.0 0.0 0.0 0.0 0.0 0.0 0.0 0.0 0.0 0.0 0.0 0.0 0.0 0.0 0.0 0.0 0.0 0.0 0.0 0.0 0.0 0.0 0.0 0.0 0.0 0.0 0.0 0.0 0.0 0.0 0.0 0.0 0.0 0.0 0.0
0.3 0.2 0.1 0.3 0.1 0.1 0.2 0.2 0.1 0.2 0.4 0.2 0.1 0.0 0.0 0.0 0.0 0.0 0.0 0.0 0.0 0.0 0.0 0.0 0.0 0.0 0.0 0.0 0.0 0.0 0.0 0.0 0.0 0.0 0.0 0.0 0.0 0.0 0.0 0.0 0.0 0.0 0.0 0.0 0.0 0.0 0.0 0.0 0.0
0.3 0.2 0.2 0.2 0.1 0.2 0.2 0.3 0.2 0.3 0.3 0.2 0.1 0.0 0.0 0.0 0.0 0.0 0.0 0.0 0.0 0.0 0.0 0.0 0.0 0.0 0.0 0.0 0.0 0.0 0.0 0.0 0.0 0.0 0.0 0.0 0.0 0.0 0.0 0.0 0.0 0.0 0.0 0.0 0.0 0.0 0.0 0.0 0.0
0.1 0.1 0.1 0.1 0.1 0.1 0.2 0.5 0.4 0.5 0.2 0.1 0.1 0.1 0.1 0.0 0.0 0.0 0.0 0.0 0.1 0.0 0.0 0.1 0.0 0.0 0.0 0.0 0.0 0.0 0.0 0.0 0.0 0.0 0.0 0.0 0.0 0.0 0.0 0.0 0.0 0.0 0.0 0.0 0.0 0.0 0.0 0.0 0.0
0.1 0.1 0.1 0.0 0.0 0.0 0.1 0.4 0.6 0.5 0.2 0.1 0.2 0.1 0.1 0.1 0.1 0.0 0.1 0.1 0.1 0.1 0.1 0.1 0.1 0.1 0.1 0.0 0.1 0.1 0.1 0.0 0.0 0.0 0.0 0.0 0.0 0.0 0.0 0.0 0.0 0.0 0.0 0.0 0.0 0.0 0.0 0.0 0.0
0.4 0.8 1.2 0.1 0.0 0.0 0.5 1.4 0.5 0.3 0.2 0.2 0.2 0.2 0.2 0.2 0.1 0.1 0.1 0.1 0.1 0.1 0.0 0.1 0.1 0.1 0.1 0.1 0.1 0.1 0.1 0.1 0.1 0.1 0.1 0.1 0.1 0.1 0.1 0.0 0.0 0.0 0.0 0.0 0.0 0.0 0.0 0.0 0.0
4.1 5.4 3.4 1.0 0.1 0.2 0.6 1.0 0.4 0.3 0.3 0.3 0.3 0.2 0.3 0.2 0.2 0.2 0.2 0.2 0.1 0.1 0.1 0.1 0.1 0.1 0.2 0.1 0.1 0.1 0.1 0.2 0.1 0.1 0.1 0.1 0.1 0.1 0.1 0.1 0.0 0.0 0.0 0.0 0.0 0.0 0.0 0.0 0.0
5.2 3.9 2.3 1.7 0.5 0.5 1.0 0.8 0.5 0.3 0.3 0.5 0.5 0.4 0.3 0.3 0.3 0.3 0.2 0.2 0.2 0.2 0.1 0.1 0.1 0.1 0.3 0.2 0.2 0.1 0.1 0.1 0.2 0.2 0.1 0.1 0.1 0.1 0.1 0.1 0.0 0.1 0.0 0.0 0.0 0.1 0.0 0.0 0.0
3.0 3.0 2.6 1.1 0.6 1.0 1.2 1.2 0.7 0.4 0.3 0.4 0.4 0.6 0.6 0.4 0.3 0.2 0.2 0.2 0.2 0.2 0.2 0.2 0.2 0.1 0.2 0.3 0.1 0.2 0.2 0.1 0.2 0.2 0.2 0.2 0.2 0.1 0.2 0.2 0.1 0.1 0.1 0.0 0.1 0.1 0.1 0.0 0.0
3.3 3.9 2.9 1.4 0.7 1.6 1.7 1.7 0.7 0.5 0.6 0.6 0.4 0.4 0.5 0.4 0.3 0.2 0.1 0.2 0.2 0.2 0.2 0.2 0.2 0.2 0.2 0.2 0.3 0.2 0.3 0.3 0.3 0.3 0.2 0.3 0.4 0.2 0.2 0.3 0.2 0.2 0.2 0.1 0.2 0.1 0.2 0.1 0.0
3.8 3.3 3.0 3.4 2.0 1.4 2.9 3.1 1.9 1.0 0.7 0.6 0.5 0.4 0.4 0.4 0.5 0.3 0.2 0.2 0.2 0.3 0.3 0.3 0.3 0.3 0.3 0.2 0.2 0.3 0.4 0.3 0.3 0.4 0.5 0.3 0.4 0.5 0.4 0.2 0.3 0.3 0.3 0.3 0.3 0.4 0.6 0.4 0.1
4.9 1.3 1.9 3.2 5.5 7.4 5.6 11.4 3.9 1.8 1.2 1.1 0.8 0.8 0.6 0.5 0.6 0.4 0.2 0.2 0.2 0.2 0.3 0.4 0.4 0.4 0.4 0.3 0.3 0.4 0.5 0.5 0.4 0.5 0.5 0.5 0.5 0.5 0.6 0.5 0.3 0.3 0.3 0.3 0.4 0.4 0.6 0.4 0.6
3.2 0.8 1.8 3.1 6.9 9.9 5.3 10.5 6.5 2.7 2.2 2.2 1.5 1.2 0.9 0.7 0.7 0.7 0.5 0.3 0.2 0.2 0.2 0.3 0.3 0.3 0.4 0.4 0.4 0.5 0.6 0.6 0.6 0.6 0.5 0.4 0.5 0.6 0.7 0.7 0.4 0.3 0.4 0.4 0.4 0.6 0.8 0.7 0.5
1.4 1.7 2.2 3.6 9.4 16.2 6.9 9.3 8.4 5.8 4.4 2.5 1.7 1.4 1.0 1.1 0.7 0.6 0.5 0.4 0.2 0.2 0.2 0.2 0.3 0.3 0.3 0.3 0.4 0.4 0.6 0.6 0.6 0.6 0.7 0.4 0.4 0.5 0.6 0.8 0.7 0.4 0.4 0.4 0.5 0.6 0.7 0.9 0.4
3.5 11.7 22.3 22.2 21.1 12.4 5.1 7.6 9.3 4.2 2.8 2.5 2.3 1.9 1.5 1.5 1.1 0.9 0.7 0.6 0.5 0.3 0.3 0.3 0.2 0.3 0.4 0.3 0.3 0.3 0.4 0.5 0.6 0.7 0.9 0.9 0.6 0.6 0.5 0.7 0.9 0.8 0.5 0.5 0.6 0.7 0.8 0.9 1.0
4.3 8.5 17.4 16.5 11.3 7.3 6.0 7.9 8.5 3.6 2.9 2.4 2.1 2.0 1.6 1.5 1.6 1.3 1.0 0.8 0.6 0.6 0.5 0.5 0.3 0.3 0.3 0.3 0.3 0.3 0.3 0.3 0.4 0.6 0.9 1.1 0.8 0.8 0.5 0.6 0.6 0.8 0.6 0.5 0.5 0.7 0.7 0.9 0.9
6.2 8.2 6.9 13.4 9.8 8.4 8.0 7.2 5.3 2.3 2.2 2.3 2.0 1.7 1.5 1.7 1.5 1.6 1.4 1.2 0.8 0.8 0.7 0.7 0.6 0.3 0.4 0.3 0.3 0.4 0.4 0.3 0.4 0.4 0.7 1.0 1.0 0.8 0.7 0.7 0.7 0.7 0.8 0.5 0.6 0.9 0.8 0.8 1.0
3.2 5.5 11.1 18.2 16.0 11.4 7.6 6.9 8.5 5.2 4.0 2.9 2.4 2.0 1.7 1.6 1.6 1.5 1.5 1.4 1.0 1.1 1.1 0.9 0.8 0.6 0.7 0.6 0.6 0.4 0.6 0.2 0.3 0.3 0.4 0.9 0.6 0.7 0.7 0.7 0.8 0.8 0.8 0.5 0.6 0.6 0.7 0.9 1.0
5.4 8.6 12.0 14.4 12.9 12.7 9.6 9.3 7.7 5.8 4.0 3.3 2.7 2.4 2.2 1.9 2.0 2.0 1.7 1.6 1.5 1.3 1.4 1.3 0.9 0.6 0.7 0.7 0.8 0.7 0.7 0.4 0.3 0.3 0.3 0.5 0.5 0.5 0.6 0.7 0.8 0.9 0.8 0.5 0.6 0.6 0.7 0.7 0.9
3.6 7.0 10.3 16.5 12.4 9.8 10.2 9.9 5.0 4.1 3.6 3.5 3.1 2.9 2.7 2.5 2.3 2.3 2.1 1.7 1.6 1.6 1.5 1.6 1.4 1.1 0.9 0.8 0.7 0.7 0.7 1.0 0.5 0.4 0.3 0.4 0.3 0.4 0.6 0.6 0.7 0.8 0.8 0.8 0.7 0.8 0.6 0.7 0.8